{"data":{"norad_id":54058,"epoch":"2026-05-24T23:55:42.763872Z","epoch_age_seconds":75616,"freshness":"FRESH","line1":"1 54058U 22136H   26144.99702273  .00001830  00000+0  13303-3 0  9996","line2":"2 54058  53.2148   1.5721 0001200  93.9747 266.1383 15.08834858198361","mean_motion":15.08834858,"eccentricity":0.00012,"inclination_deg":53.2148,"raan_deg":1.5721,"arg_perigee_deg":93.9747,"mean_anomaly_deg":266.1383,"bstar":0.00013303,"rev_number":19836,"period_min":95.437879922045,"perigee_km":538.92895851293,"apogee_km":540.58925357838,"semimajor_km":6917.8961060457,"source":"CELESTRAK","updated_at":"2026-05-25T13:38:17.647100Z"}}